| time (UTC) | temp F | wind direction | speed MPH | gust MPH | rain 1hr in | rain 24hr in | rain mn in | humidity % | barometer mb |
| 20260505022837 | 53 | 278 | 0.0 | 0.0 | 0.00 | 0.15 | 0.00 | 98 | 1011.6 |
| 20260505020835 | 53 | 278 | 0.0 | 0.0 | 0.00 | 0.15 | 0.00 | 98 | 1011.5 |
| 20260505020336 | 53 | 278 | 0.0 | 0.0 | 0.00 | 0.15 | 0.00 | 98 | 1011.5 |
| 20260505014336 | 53 | 278 | 0.0 | 0.0 | 0.00 | 0.15 | 0.00 | 98 | 1011.5 |
| 20260505013835 | 54 | 278 | 0.0 | 0.0 | 0.00 | 0.15 | 0.00 | 98 | 1011.7 |
| 20260505012336 | 54 | 278 | 0.0 | 0.0 | 0.00 | 0.15 | 0.00 | 98 | 1011.7 |
| 20260505011336 | 54 | 278 | 0.0 | 0.0 | 0.00 | 0.15 | 0.00 | 97 | 1011.7 |
| 20260505010836 | 54 | 278 | 0.0 | 0.0 | 0.00 | 0.15 | 0.00 | 97 | 1011.7 |
| 20260505005336 | 54 | 278 | 0.0 | 2.0 | 0.00 | 0.15 | 0.00 | 97 | 1011.8 |
| 20260505004336 | 54 | 278 | 0.0 | 0.0 | 0.00 | 0.15 | 0.00 | 97 | 1011.8 |
| 20260505003836 | 54 | 278 | 0.0 | 0.0 | 0.00 | 0.15 | 0.00 | 97 | 1012.0 |
| 20260505003335 | 54 | 278 | 0.0 | 0.0 | 0.00 | 0.15 | 0.00 | 97 | 1012.0 |
| 20260505002838 | 54 | 278 | 0.0 | 0.0 | 0.00 | 0.15 | 0.00 | 97 | 1012.0 |
| 20260505002337 | 54 | 278 | 0.0 | 0.0 | 0.00 | 0.15 | 0.00 | 97 | 1012.1 |
| 20260505001835 | 54 | 278 | 0.0 | 0.0 | 0.00 | 0.15 | 0.00 | 97 | 1012.1 |
| 20260505001335 | 54 | 278 | 0.0 | 0.0 | 0.00 | 0.15 | 0.00 | 97 | 1012.1 |
| 20260505000335 | 54 | 278 | 0.0 | 0.0 | 0.00 | 0.15 | 0.00 | 97 | 1012.2 |
| 20260504235836 | 54 | 278 | 0.0 | 0.0 | 0.00 | 0.15 | 0.00 | 97 | 1012.2 |
| 20260504234335 | 54 | 278 | 0.0 | 0.0 | 0.00 | 0.15 | 0.00 | 97 | 1012.3 |
| 20260504232838 | 54 | 278 | 0.0 | 0.0 | 0.00 | 0.15 | 0.00 | 97 | 1012.4 |
| 20260504232335 | 54 | 278 | 0.0 | 0.0 | 0.00 | 0.15 | 0.00 | 97 | 1012.6 |
| 20260504231835 | 54 | 278 | 0.0 | 2.0 | 0.00 | 0.15 | 0.00 | 97 | 1012.6 |
| 20260504230836 | 54 | 278 | 0.0 | 2.0 | 0.00 | 0.15 | 0.00 | 97 | 1012.6 |
| 20260504230335 | 54 | 278 | 0.0 | 0.0 | 0.00 | 0.15 | 0.00 | 97 | 1012.6 |
| 20260504225837 | 54 | 278 | 0.0 | 0.0 | 0.00 | 0.15 | 0.00 | 97 | 1012.6 |
| 20260504223335 | 54 | 278 | 0.0 | 0.0 | 0.00 | 0.15 | 0.00 | 96 | 1012.9 |
| 20260504222838 | 54 | 278 | 0.0 | 0.0 | 0.00 | 0.15 | 0.00 | 96 | 1012.9 |
| 20260504222335 | 54 | 278 | 0.0 | 0.0 | 0.00 | 0.15 | 0.00 | 96 | 1013.0 |
| 20260504221836 | 54 | 278 | 0.0 | 0.0 | 0.00 | 0.15 | 0.00 | 96 | 1013.0 |
| 20260504220835 | 54 | 278 | 0.0 | 0.0 | 0.00 | 0.15 | 0.00 | 96 | 1013.1 |
| 20260504220337 | 54 | 278 | 0.0 | 0.0 | 0.00 | 0.15 | 0.00 | 96 | 1013.1 |
| 20260504214835 | 54 | 278 | 0.0 | 0.0 | 0.00 | 0.15 | 0.15 | 96 | 1013.3 |
| 20260504214336 | 55 | 278 | 0.0 | 0.0 | 0.00 | 0.15 | 0.15 | 96 | 1013.3 |
| 20260504213336 | 55 | 183 | 0.0 | 0.0 | 0.00 | 0.15 | 0.15 | 95 | 1013.3 |
| 20260504211836 | 55 | 183 | 0.0 | 0.0 | 0.00 | 0.15 | 0.15 | 95 | 1013.3 |
| 20260504210335 | 55 | 183 | 0.0 | 0.0 | 0.00 | 0.15 | 0.15 | 95 | 1013.4 |
| 20260504205336 | 55 | 183 | 0.0 | 0.0 | 0.00 | 0.15 | 0.15 | 95 | 1013.5 |
| 20260504203836 | 55 | 183 | 0.0 | 0.0 | 0.00 | 0.15 | 0.15 | 94 | 1013.7 |
| 20260504202837 | 55 | 183 | 0.0 | 0.0 | 0.00 | 0.15 | 0.15 | 94 | 1013.7 |
| 20260504202336 | 55 | 183 | 0.0 | 0.0 | 0.00 | 0.15 | 0.15 | 94 | 1013.7 |
| 20260504201835 | 55 | 183 | 0.0 | 0.0 | 0.00 | 0.15 | 0.15 | 94 | 1013.7 |
| 20260504201335 | 55 | 183 | 0.0 | 0.0 | 0.00 | 0.15 | 0.15 | 93 | 1013.7 |
| 20260504200840 | 55 | 183 | 0.0 | 0.0 | 0.00 | 0.15 | 0.15 | 93 | 1013.6 |
| 20260504200336 | 56 | 183 | 0.0 | 0.0 | 0.00 | 0.15 | 0.15 | 93 | 1013.6 |
| 20260504195841 | 56 | 183 | 1.0 | 0.0 | 0.00 | 0.15 | 0.15 | 93 | 1013.6 |
| 20260504195346 | 56 | 183 | 1.0 | 2.0 | 0.00 | 0.15 | 0.15 | 93 | 1013.5 |
| 20260504194835 | 56 | 183 | 1.0 | 3.0 | 0.00 | 0.15 | 0.15 | 92 | 1013.5 |
| 20260504193835 | 56 | 202 | 0.0 | 2.0 | 0.00 | 0.15 | 0.15 | 93 | 1013.5 |
| 20260504192837 | 56 | 115 | 0.0 | 2.0 | 0.00 | 0.15 | 0.15 | 92 | 1013.5 |
| 20260504191835 | 56 | 177 | 0.0 | 0.0 | 0.00 | 0.15 | 0.15 | 92 | 1013.4 |
| 20260504191335 | 56 | 177 | 0.0 | 0.0 | 0.00 | 0.15 | 0.15 | 91 | 1013.4 |
| 20260504190836 | 56 | 177 | 0.0 | 0.0 | 0.00 | 0.15 | 0.15 | 91 | 1013.4 |
| 20260504190335 | 56 | 177 | 0.0 | 2.0 | 0.00 | 0.15 | 0.15 | 91 | 1013.4 |
| 20260504184835 | 57 | 151 | 2.0 | 5.0 | 0.00 | 0.15 | 0.15 | 90 | 1013.3 |
| 20260504184336 | 57 | 151 | 2.0 | 5.0 | 0.00 | 0.15 | 0.15 | 90 | 1013.3 |
| 20260504183835 | 57 | 165 | 1.0 | 3.0 | 0.00 | 0.15 | 0.15 | 90 | 1013.4 |
| 20260504180335 | 57 | 213 | 0.0 | 3.0 | 0.00 | 0.15 | 0.15 | 91 | 1013.4 |
| 20260504175335 | 58 | 214 | 1.0 | 1.0 | 0.00 | 0.15 | 0.15 | 91 | 1013.4 |
| 20260504174335 | 58 | 222 | 1.0 | 5.0 | 0.00 | 0.15 | 0.15 | 90 | 1013.4 |
| 20260504173835 | 58 | 262 | 1.0 | 3.0 | 0.00 | 0.15 | 0.15 | 90 | 1013.6 |
| 20260504173335 | 58 | 178 | 1.0 | 7.0 | 0.00 | 0.15 | 0.15 | 90 | 1013.6 |
| 20260504172837 | 58 | 209 | 1.0 | 2.0 | 0.00 | 0.15 | 0.15 | 90 | 1013.6 |
| 20260504172335 | 58 | 209 | 0.0 | 7.0 | 0.00 | 0.15 | 0.15 | 90 | 1013.6 |
| 20260504171335 | 58 | 168 | 0.0 | 1.0 | 0.00 | 0.15 | 0.15 | 91 | 1013.6 |
| 20260504170835 | 58 | 168 | 2.0 | 3.0 | 0.00 | 0.15 | 0.15 | 90 | 1013.7 |
| 20260504170335 | 58 | 190 | 2.0 | 0.0 | 0.00 | 0.15 | 0.15 | 90 | 1013.7 |
| 20260504160335 | 59 | 175 | 0.0 | 7.0 | 0.03 | 0.15 | 0.15 | 90 | 1013.8 |
| 20260504110335 | 63 | 317 | 3.0 | 6.0 | 0.00 | 0.01 | 0.00 | 76 | 1014.4 |
| 20260504080835 | 62 | 211 | 3.0 | 7.0 | 0.00 | 0.02 | 0.00 | 74 | 1014.3 |
| 20260504080335 | 62 | 241 | 3.0 | 8.0 | 0.00 | 0.02 | 0.00 | 75 | 1014.3 |
| 20260504070334 | 60 | 183 | 3.0 | 5.0 | 0.00 | 0.02 | 0.00 | 80 | 1014.2 |
| 20260504045837 | 50 | 316 | 0.0 | 0.0 | 0.00 | 0.02 | 0.00 | 92 | 1013.5 |
| 20260504043835 | 51 | 314 | 2.0 | 0.0 | 0.00 | 0.02 | 0.00 | 91 | 1013.3 |
| 20260504043335 | 51 | 314 | 2.0 | 1.0 | 0.00 | 0.02 | 0.00 | 91 | 1013.3 |
| 20260504042836 | 51 | 314 | 1.0 | 5.0 | 0.00 | 0.02 | 0.00 | 90 | 1013.3 |
| 20260504042334 | 51 | 326 | 0.0 | 5.0 | 0.00 | 0.02 | 0.00 | 88 | 1013.2 |
| 20260504040835 | 52 | 330 | 0.0 | 2.0 | 0.00 | 0.02 | 0.00 | 86 | 1013.1 |
| 20260504035335 | 54 | 330 | 0.0 | 0.0 | 0.00 | 0.02 | 0.00 | 86 | 1013.3 |
| 20260504034335 | 54 | 330 | 2.0 | 0.0 | 0.00 | 0.02 | 0.00 | 85 | 1013.3 |
| 20260504033835 | 55 | 330 | 2.0 | 5.0 | 0.00 | 0.02 | 0.00 | 84 | 1013.2 |
| 20260504033335 | 55 | 199 | 2.0 | 7.0 | 0.00 | 0.02 | 0.00 | 84 | 1013.2 |
| 20260504032335 | 55 | 167 | 3.0 | 5.0 | 0.00 | 0.02 | 0.00 | 84 | 1013.2 |
| 20260504031835 | 55 | 165 | 4.0 | 6.0 | 0.00 | 0.02 | 0.00 | 84 | 1013.2 |
| 20260504031335 | 55 | 165 | 5.0 | 7.0 | 0.00 | 0.02 | 0.00 | 84 | 1013.2 |
| 20260504023835 | 56 | 169 | 3.0 | 5.0 | 0.00 | 0.02 | 0.00 | 83 | 1013.0 |
| 20260504023334 | 56 | 150 | 3.0 | 6.0 | 0.00 | 0.02 | 0.00 | 84 | 1013.0 |